Regional Weather Roundup
Issued by NWS

Home | Current Version | Previous Version | Graphics & Text | Print | Product List | Glossary Off
Versions: 1 2 3 4 5 6 7 8 9 10 11 12 13 14 15 16 17 18 19 20 21 22 23 24 25 26 27 28 29 30 31 32 33 34 35 36 37 38 39 40 41 42 43 44 45 46 47 48 49 50

000
ASUS43 KMKX 011511
RWRWI

WISCONSIN REGIONAL WEATHER ROUNDUP
NATIONAL WEATHER SERVICE MILWAUKEE/SULLIVAN WI
1000 AM CDT FRI AUG 01 2014

NOTE: "FAIR" INDICATES FEW OR NO CLOUDS BELOW 12,000 FEET WITH NO
SIGNIFICANT WEATHER AND/OR OBSTRUCTIONS TO VISIBILITY.

WIZ001-002-006>008-014>016-023>028-011600-
NORTHWEST WISCONSIN

CITY           SKY/WX    TMP DP  RH WIND       PRES   REMARKS
SUPERIOR ARPT  SUNNY     63  54  72 NE7       30.07S
ASHLAND        SUNNY     67  57  70 CALM      30.07S
HAYWARD        SUNNY     70  57  63 NE3       30.07S
SIREN          SUNNY     68  64  86 CALM      30.07R
RICE LAKE      MOSUNNY   70  63  80 CALM      30.07F
LADYSMITH      PTSUNNY   66  65  96 CALM      30.08S FOG
EAU CLAIRE     SUNNY     73  62  68 CALM      30.05S
MENOMONIE      SUNNY     73  61  65 CALM      30.06S
NEW RICHMOND   SUNNY     73  62  68 W3        30.07S
OSCEOLA        MOSUNNY   71  66  83 CALM      30.09S
$$

WIZ003>005-009-010-017-018-011600-
NORTH CENTRAL WISCONSIN

CITY           SKY/WX    TMP DP  RH WIND       PRES   REMARKS
WOODRUFF       SUNNY     72  59  62 N5        30.08R
RHINELANDER    SUNNY     68  60  75 CALM      30.09R
EAGLE RIVER    SUNNY     68  53  58 N3        30.07S
LAND O LAKES   SUNNY     70  51  52 N3        30.09S
PHILLIPS       SUNNY     66  59  79 CALM      30.07S
TOMAHAWK       SUNNY     66  64  91 CALM      30.08R
MEDFORD        MOSUNNY   68  63  85 CALM      30.07F
MERRILL        SUNNY     67  63  87 CALM      30.06F
$$

WIZ029-030-035-036-043>047-011600-
CENTRAL WISCONSIN

CITY           SKY/WX    TMP DP  RH WIND       PRES   REMARKS
WAUSAU         SUNNY     70  61  73 VRB3      30.06R
MOSINEE        MOSUNNY   72  63  73 CALM      30.08R
MARSHFIELD     MOSUNNY   72  62  71 W6        30.07R
STEVENS POINT  MOSUNNY   69  59  71 W3        30.07S
WAUPACA        SUNNY     76  61  59 SW3       30.06S
WAUTOMA        MOSUNNY   77  61  57 W5        30.07S
WISC RAPIDS    TSTM      67  62  84 SW3       30.09R
CAMP DOUGLAS   MOSUNNY   75  64  69 W6        30.07S
$$

WIZ011>013-019>022-031-037>040-048>050-011600-
NORTHEAST WISCONSIN

CITY           SKY/WX    TMP DP  RH WIND       PRES   REMARKS
ANTIGO         SUNNY     68  62  83 CALM      30.08S
STURGEON BAY   SUNNY     72  63  73 W3        30.06S
GREEN BAY      SUNNY     71  64  78 VRB3      30.06R
MANITOWOC      CLOUDY    72  64  76 NW3       30.06S
APPLETON       SUNNY     70  63  78 VRB5      30.07S
CLINTONVILLE   SUNNY     72  59  64 W3        30.06R
OSHKOSH        SUNNY     72  63  73 VRB3      30.06S
$$

WIZ032>034-041-042-053>061-011600-
SOUTHWEST WISCONSIN

CITY           SKY/WX    TMP DP  RH WIND       PRES   REMARKS
LA CROSSE      SUNNY     73  60  63 CALM      30.07S
SPARTA         SUNNY     71  59  65 W3        30.08S
VIROQUA        FAIR      73  59  63 W5        30.10S
BOSCOBEL       SUNNY     74  61  63 VRB3      30.09S
PRAIRIE DU CHI SUNNY     72  60  66 CALM      30.08S
PLATTEVILLE    FAIR      73  63  69 CALM      30.10S
$$

WIZ056-057-062-063-064-067-068-011600-
SOUTH CENTRAL WISCONSIN

CITY           SKY/WX    TMP DP  RH WIND       PRES   REMARKS
BARABOO/DELLS  SUNNY     75  56  53 NW6       30.08S
LONE ROCK      SUNNY     76  62  62 SW3       30.08F
WATERTOWN      SUNNY     73  62  69 SW5       30.08S
MADISON        SUNNY     76  61  59 CALM      30.08S
MIDDLETON      FAIR      77  58  52 W7        30.09S
MONROE         SUNNY     73  61  64 CALM      30.10S
JANESVILLE     SUNNY     75  59  57 SW7       30.08S
$$

WIZ051-052-058>065-066-070>072-011600-
SOUTHEAST WISCONSIN

CITY           SKY/WX    TMP DP  RH WIND       PRES   REMARKS
MILWAUKEE      MOSUNNY   78  57  48 W8        30.08R
WAUKESHA       SUNNY     73  57  56 CALM      30.10R
MILWAUKEE/TIMM SUNNY     75  57  53 W5        30.08S
RACINE         SUNNY     76  60  57 W7        30.10R
BURLINGTON     SUNNY     74  61  64 W3        30.09S
KENOSHA        SUNNY     76  61  59 W9        30.09S
FOND DU LAC    MOSUNNY   74  62  66 SW5       30.07S
SHEBOYGAN      SUNNY     76  61  59 W6        30.06S
WEST BEND      SUNNY     73  57  56 W3        30.07S
JUNEAU         SUNNY     72  58  61 CALM      30.09S
$$

LSZ147-162-011600-
LAKE SUPERIOR

STATION/POSITION TIME  TEMP    WIND        PRES    WAVE
                       AIR SEA DIR/SP/G            HT/PER
                 (UTC) (F)     (DEG/KT/KT) (MB)    (FT/S)
W MID LAKE BUOY  1450   47 43   30/  6/  8 1018.3R   0
PORT WING        1400   61      20/  3/  3 1018.3S
SAXON HARBOR     1400             CALM     1018.3R
$$

LMZ867-665-643>646-011600-
LAKE MICHIGAN

STATION/POSITION TIME  TEMP    WIND        PRES    WAVE
                       AIR SEA DIR/SP/G            HT/PER
                 (UTC) (F)     (DEG/KT/KT) (MB)    (FT/S)
N MID LAKE BUOY  1450   58 56  170/  4/  4 1017.5R   1
NORTHPORT PIER   1400   64     100/  2/  3 1017.6S
ALGOMA LAKESHORE 1321           80/  7/  8   N/A
KEWAUNEE LAKESHO 1400   67      30/  4/  6 1016.8R
SHEBOYGAN LAKESH 1500   71     170/  6/  7 1017.8R
PORT WASHINGTON  1440   72     180/  4/  7 1018.6R
ATWATER BUOY     1500   69     120/  2     1019.4S
MILWAUKEE LAKESH 1400   73     270/  5/  6   N/A
S MID LAKE BUOY  1450   64 63  220/  4/  6 1018.8R   0
KENOSHA   LAKESH 1500   76     230/  6/  9 1018.3S
$$

TC  - TEMPERATURE IN CELSIUS
VSB - VISIBILITY IN STATUTE MILES
WCI - WIND CHILL INDEX
HX  - HEAT INDEX




USA.gov is the U.S. government's official web portal to all federal, state and local government web resources and services.